カタログに戻る

ATLAS 5 CENTAUR DEB

LostHEO
NORAD 46650·DEBRIS·🇺🇸 United States

打ち上げ Sep 17, 2014 から Cape Canaveral Space Force Station

Loading…

次のパス (今後24時間)

TLE

古いSource: Space-Track

元期: Dec 29, 2020, 08:04 UTC

1 46650U 14055DA  20364.33619505 -.00000122  00000-0  00000+0 0  9998
2 46650  22.2672 346.1253 4533167 157.0610 232.2120  1.70394216  1339

AllMySatでATLAS 5 CENTAUR DEBをリアルタイム追跡

Download on the App Store